Year,Month,Day,Hour,Minute,Value (Times are PST for temperature in C)
2012,03,30,00,00,4.10
2012,03,30,00,01,4.10
2012,03,30,00,02,4.10
2012,03,30,00,03,4.10
2012,03,30,00,04,4.10
2012,03,30,00,05,4.10
2012,03,30,00,06,4.10
2012,03,30,00,07,4.10
2012,03,30,00,08,4.10
2012,03,30,00,09,4.10
2012,03,30,00,10,4.10
2012,03,30,00,11,4.00
2012,03,30,00,12,4.00
2012,03,30,00,13,4.00
2012,03,30,00,14,4.00
2012,03,30,00,15,4.00
2012,03,30,00,16,3.90
2012,03,30,00,17,3.90
2012,03,30,00,18,3.90
2012,03,30,00,19,3.90
2012,03,30,00,20,3.90
2012,03,30,00,21,3.90
2012,03,30,00,22,3.90
2012,03,30,00,23,3.90
2012,03,30,00,24,3.90
2012,03,30,00,25,3.90
2012,03,30,00,26,3.90
2012,03,30,00,27,3.80
2012,03,30,00,28,3.80
2012,03,30,00,29,3.80
2012,03,30,00,30,3.80
2012,03,30,00,31,3.80
2012,03,30,00,32,3.80
2012,03,30,00,33,3.80
2012,03,30,00,34,3.80
2012,03,30,00,35,3.80
2012,03,30,00,36,3.80
2012,03,30,00,37,3.70
2012,03,30,00,38,3.70
2012,03,30,00,39,3.70
2012,03,30,00,40,3.70
2012,03,30,00,41,3.70
2012,03,30,00,42,3.70
2012,03,30,00,43,3.70
2012,03,30,00,44,3.70
2012,03,30,00,45,3.70
2012,03,30,00,46,3.70
2012,03,30,00,47,3.70
2012,03,30,00,48,3.70
2012,03,30,00,49,3.70
2012,03,30,00,50,3.80
2012,03,30,00,51,3.80
2012,03,30,00,52,3.80
2012,03,30,00,53,3.80
2012,03,30,00,54,3.80
2012,03,30,00,55,3.80
2012,03,30,00,56,3.80
2012,03,30,00,57,3.80
2012,03,30,00,58,3.80
2012,03,30,00,59,3.90
2012,03,30,01,00,3.90
2012,03,30,01,01,4.00
2012,03,30,01,02,4.00
2012,03,30,01,03,4.00
2012,03,30,01,04,4.10
2012,03,30,01,05,4.20
2012,03,30,01,06,4.20
2012,03,30,01,07,4.30
2012,03,30,01,08,4.30
2012,03,30,01,09,4.30
2012,03,30,01,10,4.30
2012,03,30,01,11,4.30
2012,03,30,01,12,4.40
2012,03,30,01,13,4.40
2012,03,30,01,14,4.40
2012,03,30,01,15,4.40
2012,03,30,01,16,4.40
2012,03,30,01,17,4.30
2012,03,30,01,18,4.30
2012,03,30,01,19,4.30
2012,03,30,01,20,4.30
2012,03,30,01,21,4.30
2012,03,30,01,22,4.30
2012,03,30,01,23,4.30
2012,03,30,01,24,4.30
2012,03,30,01,25,4.30
2012,03,30,01,26,4.30
2012,03,30,01,27,4.40
2012,03,30,01,28,4.40
2012,03,30,01,29,4.40
2012,03,30,01,30,4.40
2012,03,30,01,31,4.40
2012,03,30,01,32,4.50
2012,03,30,01,33,4.50
2012,03,30,01,34,4.60
2012,03,30,01,35,4.60
2012,03,30,01,36,4.60
2012,03,30,01,37,4.60
2012,03,30,01,38,4.60
2012,03,30,01,39,4.60
2012,03,30,01,40,4.70
2012,03,30,01,41,4.60
2012,03,30,01,42,4.60
2012,03,30,01,43,4.60
2012,03,30,01,44,4.60
2012,03,30,01,45,4.60
2012,03,30,01,46,4.60
2012,03,30,01,47,4.50
2012,03,30,01,48,4.50
2012,03,30,01,49,4.50
2012,03,30,01,50,4.50
2012,03,30,01,51,4.50
2012,03,30,01,52,4.50
2012,03,30,01,53,4.50
2012,03,30,01,54,4.50
2012,03,30,01,55,4.50
2012,03,30,01,56,4.50
2012,03,30,01,57,4.50
2012,03,30,01,58,4.50
2012,03,30,01,59,4.50
2012,03,30,02,00,4.40
2012,03,30,02,01,4.40
2012,03,30,02,02,4.40
2012,03,30,02,03,4.40
2012,03,30,02,04,4.40
2012,03,30,02,05,4.50
2012,03,30,02,06,4.50
2012,03,30,02,07,4.50
2012,03,30,02,08,4.60
2012,03,30,02,09,4.60
2012,03,30,02,10,4.60
2012,03,30,02,11,4.60
2012,03,30,02,12,4.70
2012,03,30,02,13,4.60
2012,03,30,02,14,4.60
2012,03,30,02,15,4.60
2012,03,30,02,16,4.60
2012,03,30,02,17,4.60
2012,03,30,02,18,4.70
2012,03,30,02,19,4.70
2012,03,30,02,20,4.70
2012,03,30,02,21,4.70
2012,03,30,02,22,4.70
2012,03,30,02,23,4.70
2012,03,30,02,24,4.70
2012,03,30,02,25,4.70
2012,03,30,02,26,4.60
2012,03,30,02,27,4.60
2012,03,30,02,28,4.60
2012,03,30,02,29,4.60
2012,03,30,02,30,4.60
2012,03,30,02,31,4.60
2012,03,30,02,32,4.60
2012,03,30,02,33,4.60
2012,03,30,02,34,4.60
2012,03,30,02,35,4.60
2012,03,30,02,36,4.60
2012,03,30,02,37,4.60
2012,03,30,02,38,4.60
2012,03,30,02,39,4.70
2012,03,30,02,40,4.70
2012,03,30,02,41,4.70
2012,03,30,02,42,4.70
2012,03,30,02,43,4.70
2012,03,30,02,44,4.70
2012,03,30,02,45,4.70
2012,03,30,02,46,4.70
2012,03,30,02,47,4.80
2012,03,30,02,48,4.80
2012,03,30,02,49,4.80
2012,03,30,02,50,4.90
2012,03,30,02,51,4.90
2012,03,30,02,52,4.90
2012,03,30,02,53,4.80
2012,03,30,02,54,4.80
2012,03,30,02,55,4.80
2012,03,30,02,56,4.80
2012,03,30,02,57,4.80
2012,03,30,02,58,4.80
2012,03,30,02,59,4.80
2012,03,30,03,00,4.80
2012,03,30,03,01,4.80
2012,03,30,03,02,4.80
2012,03,30,03,03,4.80
2012,03,30,03,04,4.70
2012,03,30,03,05,4.80
2012,03,30,03,06,4.80
2012,03,30,03,07,4.80
2012,03,30,03,08,4.80
2012,03,30,03,09,4.80
2012,03,30,03,10,4.80
2012,03,30,03,11,4.80
2012,03,30,03,12,4.80
2012,03,30,03,13,4.80
2012,03,30,03,14,4.80
2012,03,30,03,15,4.80
2012,03,30,03,16,4.70
2012,03,30,03,17,4.70
2012,03,30,03,18,4.70
2012,03,30,03,19,4.70
2012,03,30,03,20,4.80
2012,03,30,03,21,4.80
2012,03,30,03,22,4.80
2012,03,30,03,23,4.80
2012,03,30,03,24,4.80
2012,03,30,03,25,4.80
2012,03,30,03,26,4.90
2012,03,30,03,27,4.90
2012,03,30,03,28,4.90
2012,03,30,03,29,4.90
2012,03,30,03,30,4.90
2012,03,30,03,31,4.90
2012,03,30,03,32,4.90
2012,03,30,03,33,4.90
2012,03,30,03,34,4.90
2012,03,30,03,35,4.90
2012,03,30,03,36,4.90
2012,03,30,03,37,4.90
2012,03,30,03,38,4.90
2012,03,30,03,39,4.90
2012,03,30,03,40,4.90
2012,03,30,03,41,4.90
2012,03,30,03,42,4.90
2012,03,30,03,43,4.90
2012,03,30,03,44,4.90
2012,03,30,03,45,4.90
2012,03,30,03,46,4.90
2012,03,30,03,47,4.80
2012,03,30,03,48,4.80
2012,03,30,03,49,4.90
2012,03,30,03,50,4.90
2012,03,30,03,51,4.90
2012,03,30,03,52,4.90
2012,03,30,03,53,4.80
2012,03,30,03,54,4.80
2012,03,30,03,55,4.90
2012,03,30,03,56,4.90
2012,03,30,03,57,4.90
2012,03,30,03,58,4.90
2012,03,30,03,59,4.90
2012,03,30,04,00,4.90
2012,03,30,04,01,4.90
2012,03,30,04,02,4.90
2012,03,30,04,03,4.90
2012,03,30,04,04,4.80
2012,03,30,04,05,4.80
2012,03,30,04,06,4.80
2012,03,30,04,07,4.80
2012,03,30,04,08,4.80
2012,03,30,04,09,4.80
2012,03,30,04,10,4.80
2012,03,30,04,11,4.80
2012,03,30,04,12,4.80
2012,03,30,04,13,4.80
2012,03,30,04,14,4.80
2012,03,30,04,15,4.80
2012,03,30,04,16,4.80
2012,03,30,04,17,4.80
2012,03,30,04,18,4.80
2012,03,30,04,19,4.80
2012,03,30,04,20,4.80
2012,03,30,04,21,4.80
2012,03,30,04,22,4.80
2012,03,30,04,23,4.80
2012,03,30,04,24,4.80
2012,03,30,04,25,4.80
2012,03,30,04,26,4.80
2012,03,30,04,27,4.80
2012,03,30,04,28,4.80
2012,03,30,04,29,4.80
2012,03,30,04,30,4.80
2012,03,30,04,31,4.80
2012,03,30,04,32,4.80
2012,03,30,04,33,4.80
2012,03,30,04,34,4.80
2012,03,30,04,35,4.80
2012,03,30,04,36,4.80
2012,03,30,04,37,4.80
2012,03,30,04,38,4.70
2012,03,30,04,39,4.70
2012,03,30,04,40,4.70
2012,03,30,04,41,4.70
2012,03,30,04,42,4.70
2012,03,30,04,43,4.70
2012,03,30,04,44,4.70
2012,03,30,04,45,4.70
2012,03,30,04,46,4.70
2012,03,30,04,47,4.60
2012,03,30,04,48,4.60
2012,03,30,04,49,4.60
2012,03,30,04,50,4.50
2012,03,30,04,51,4.50
2012,03,30,04,52,4.40
2012,03,30,04,53,4.40
2012,03,30,04,54,4.40
2012,03,30,04,55,4.30
2012,03,30,04,56,4.30
2012,03,30,04,57,4.30
2012,03,30,04,58,4.30
2012,03,30,04,59,4.20
2012,03,30,05,00,4.20
2012,03,30,05,01,4.20
2012,03,30,05,02,4.20
2012,03,30,05,03,4.10
2012,03,30,05,04,4.10
2012,03,30,05,05,4.10
2012,03,30,05,06,4.10
2012,03,30,05,07,4.10
2012,03,30,05,08,4.10
2012,03,30,05,09,4.10
2012,03,30,05,10,4.00
2012,03,30,05,11,4.00
2012,03,30,05,12,4.00
2012,03,30,05,13,4.00
2012,03,30,05,14,3.90
2012,03,30,05,15,4.00
2012,03,30,05,16,3.90
2012,03,30,05,17,3.90
2012,03,30,05,18,3.90
2012,03,30,05,19,3.90
2012,03,30,05,20,3.90
2012,03,30,05,21,3.90
2012,03,30,05,22,3.90
2012,03,30,05,23,3.90
2012,03,30,05,24,3.90
2012,03,30,05,25,3.90
2012,03,30,05,26,3.80
2012,03,30,05,27,3.80
2012,03,30,05,28,3.80
2012,03,30,05,29,3.80
2012,03,30,05,30,3.80
2012,03,30,05,31,3.80
2012,03,30,05,32,3.80
2012,03,30,05,33,3.70
2012,03,30,05,34,3.70
2012,03,30,05,35,3.70
2012,03,30,05,36,3.70
2012,03,30,05,37,3.70
2012,03,30,05,38,3.70
2012,03,30,05,39,3.70
2012,03,30,05,40,3.70
2012,03,30,05,41,3.70
2012,03,30,05,42,3.70
2012,03,30,05,43,3.70
2012,03,30,05,44,3.70
2012,03,30,05,45,3.70
2012,03,30,05,46,3.70
2012,03,30,05,47,3.80
2012,03,30,05,48,3.80
2012,03,30,05,49,3.80
2012,03,30,05,50,3.80
2012,03,30,05,51,3.90
2012,03,30,05,52,3.90
2012,03,30,05,53,3.90
2012,03,30,05,54,3.90
2012,03,30,05,55,3.90
2012,03,30,05,56,4.00
2012,03,30,05,57,4.00
2012,03,30,05,58,4.00
2012,03,30,05,59,4.00
2012,03,30,06,00,4.00
2012,03,30,06,01,4.00
2012,03,30,06,02,4.00
2012,03,30,06,03,4.00
2012,03,30,06,04,4.10
2012,03,30,06,05,4.10
2012,03,30,06,06,4.10
2012,03,30,06,07,4.10
2012,03,30,06,08,4.10
2012,03,30,06,09,4.10
2012,03,30,06,10,4.10
2012,03,30,06,11,4.10
2012,03,30,06,12,4.10
2012,03,30,06,13,4.00
2012,03,30,06,14,4.00
2012,03,30,06,15,4.00
2012,03,30,06,16,4.00
2012,03,30,06,17,4.00
2012,03,30,06,18,4.00
2012,03,30,06,19,4.00
2012,03,30,06,20,4.00
2012,03,30,06,21,4.00
2012,03,30,06,22,4.00
2012,03,30,06,23,4.00
2012,03,30,06,24,3.90
2012,03,30,06,25,3.90
2012,03,30,06,26,3.90
2012,03,30,06,27,3.90
2012,03,30,06,28,3.90
2012,03,30,06,29,3.90
2012,03,30,06,30,3.90
2012,03,30,06,31,3.90
2012,03,30,06,32,3.80
2012,03,30,06,33,3.80
2012,03,30,06,34,3.80
2012,03,30,06,35,3.80
2012,03,30,06,36,3.80
2012,03,30,06,37,3.80
2012,03,30,06,38,3.80
2012,03,30,06,39,3.80
2012,03,30,06,40,3.80
2012,03,30,06,41,3.80
2012,03,30,06,42,3.80
2012,03,30,06,43,3.80
2012,03,30,06,44,3.80
2012,03,30,06,45,3.80
2012,03,30,06,46,3.80
2012,03,30,06,47,3.80
2012,03,30,06,48,3.80
2012,03,30,06,49,3.80
2012,03,30,06,50,3.80
2012,03,30,06,51,3.80
2012,03,30,06,52,3.80
2012,03,30,06,53,3.80
2012,03,30,06,54,3.80
2012,03,30,06,55,3.80
2012,03,30,06,56,3.80
2012,03,30,06,57,3.80
2012,03,30,06,58,3.80
2012,03,30,06,59,3.80
2012,03,30,07,00,3.80
2012,03,30,07,01,3.70
2012,03,30,07,02,3.70
2012,03,30,07,03,3.70
2012,03,30,07,04,3.70
2012,03,30,07,05,3.70
2012,03,30,07,06,3.70
2012,03,30,07,07,3.70
2012,03,30,07,08,3.70
2012,03,30,07,09,3.70
2012,03,30,07,10,3.80
2012,03,30,07,11,3.80
2012,03,30,07,12,3.80
2012,03,30,07,13,3.80
2012,03,30,07,14,3.80
2012,03,30,07,15,3.80
2012,03,30,07,16,3.80
2012,03,30,07,17,3.80
2012,03,30,07,18,3.80
2012,03,30,07,19,3.80
2012,03,30,07,20,3.90
2012,03,30,07,21,3.90
2012,03,30,07,22,3.90
2012,03,30,07,23,3.90
2012,03,30,07,24,4.00
2012,03,30,07,25,4.10
2012,03,30,07,26,4.10
2012,03,30,07,27,4.20
2012,03,30,07,28,4.20
2012,03,30,07,29,4.20
2012,03,30,07,30,4.30
2012,03,30,07,31,4.30
2012,03,30,07,32,4.30
2012,03,30,07,33,4.40
2012,03,30,07,34,4.40
2012,03,30,07,35,4.40
2012,03,30,07,36,4.40
2012,03,30,07,37,4.40
2012,03,30,07,38,4.40
2012,03,30,07,39,4.40
2012,03,30,07,40,4.40
2012,03,30,07,41,4.50
2012,03,30,07,42,4.50
2012,03,30,07,43,4.50
2012,03,30,07,44,4.50
2012,03,30,07,45,4.50
2012,03,30,07,46,4.50
2012,03,30,07,47,4.50
2012,03,30,07,48,4.50
2012,03,30,07,49,4.50
2012,03,30,09,08,6.50
2012,03,30,09,09,6.60
2012,03,30,09,10,6.70
2012,03,30,09,11,6.80
2012,03,30,09,12,6.80
2012,03,30,09,13,6.90
2012,03,30,09,14,7.10
2012,03,30,09,15,7.20
2012,03,30,09,16,7.20
2012,03,30,09,17,7.30
2012,03,30,09,18,7.40
2012,03,30,09,19,7.40
2012,03,30,09,20,7.40
2012,03,30,09,21,7.40
2012,03,30,09,22,7.50
2012,03,30,09,23,7.60
2012,03,30,09,24,7.60
2012,03,30,09,25,7.70
2012,03,30,09,26,7.80
2012,03,30,09,27,7.80
2012,03,30,09,28,7.90
2012,03,30,09,29,8.00
2012,03,30,09,30,8.00
2012,03,30,09,31,7.90
2012,03,30,09,32,7.90
2012,03,30,09,33,7.90
2012,03,30,09,34,7.80
2012,03,30,09,35,7.70
2012,03,30,09,36,7.50
2012,03,30,09,37,7.50
2012,03,30,09,38,7.40
2012,03,30,09,39,7.40
2012,03,30,09,40,7.40
2012,03,30,09,41,7.40
2012,03,30,09,42,7.40
2012,03,30,09,43,7.40
2012,03,30,09,44,7.40
2012,03,30,09,45,7.40
2012,03,30,09,46,7.40
2012,03,30,09,47,7.50
2012,03,30,09,48,7.50
2012,03,30,09,49,7.50
2012,03,30,09,50,7.40
2012,03,30,09,51,7.40
2012,03,30,09,52,7.40
2012,03,30,09,53,7.40
2012,03,30,09,54,7.40
2012,03,30,09,55,7.40
2012,03,30,09,56,7.50
2012,03,30,09,57,7.60
2012,03,30,09,58,7.60
2012,03,30,09,59,7.60
2012,03,30,10,00,7.60
2012,03,30,10,01,7.60
2012,03,30,10,02,7.60
2012,03,30,10,03,7.60
2012,03,30,10,04,7.60
2012,03,30,10,05,7.60
2012,03,30,10,06,7.60
2012,03,30,10,07,7.70
2012,03,30,10,08,7.70
2012,03,30,10,09,7.70
2012,03,30,10,10,7.80
2012,03,30,10,11,7.80
2012,03,30,10,12,7.80
2012,03,30,10,13,7.90
2012,03,30,10,14,7.90
2012,03,30,10,15,7.90
2012,03,30,10,16,7.90
2012,03,30,10,17,8.00
2012,03,30,10,18,8.00
2012,03,30,10,19,8.00
2012,03,30,10,20,8.00
2012,03,30,10,21,8.10
2012,03,30,10,22,8.10
2012,03,30,10,23,8.10
2012,03,30,10,24,8.10
2012,03,30,10,25,8.10
2012,03,30,10,26,8.10
2012,03,30,10,27,8.10
2012,03,30,10,28,8.10
2012,03,30,10,29,8.20
2012,03,30,10,30,8.20
2012,03,30,10,31,8.20
2012,03,30,10,32,8.30
2012,03,30,10,33,8.30
2012,03,30,10,34,8.30
2012,03,30,10,35,8.30
2012,03,30,10,36,8.30
2012,03,30,10,37,8.30
2012,03,30,10,38,8.20
2012,03,30,10,39,8.20
2012,03,30,10,40,8.30
2012,03,30,10,41,8.30
2012,03,30,10,42,8.30
2012,03,30,10,43,8.30
2012,03,30,10,44,8.40
2012,03,30,10,45,8.40
2012,03,30,10,46,8.40
2012,03,30,10,47,8.50
2012,03,30,10,48,8.50
2012,03,30,10,49,8.60
2012,03,30,10,50,8.60
2012,03,30,10,51,8.60
2012,03,30,10,52,8.70
2012,03,30,10,53,8.70
2012,03,30,10,54,8.70
2012,03,30,10,55,8.70
2012,03,30,10,56,8.80
2012,03,30,10,57,8.80
2012,03,30,10,58,8.80
2012,03,30,10,59,8.80
2012,03,30,11,00,8.80
2012,03,30,11,01,8.90
2012,03,30,11,02,8.90
2012,03,30,11,03,8.90
2012,03,30,11,04,8.90
2012,03,30,11,05,8.90
2012,03,30,11,06,9.00
2012,03,30,11,07,9.00
2012,03,30,11,08,9.00
2012,03,30,11,09,9.00
2012,03,30,11,10,9.00
2012,03,30,11,11,9.10
2012,03,30,11,12,9.10
2012,03,30,11,13,9.10
2012,03,30,11,14,9.20
2012,03,30,11,15,9.20
2012,03,30,11,16,9.30
2012,03,30,11,17,9.40
2012,03,30,11,18,9.40
2012,03,30,11,19,9.30
2012,03,30,11,20,9.30
2012,03,30,11,21,9.20
2012,03,30,11,22,9.20
2012,03,30,11,23,9.20
2012,03,30,11,24,9.20
2012,03,30,11,25,9.20
2012,03,30,11,26,9.30
2012,03,30,11,27,9.30
2012,03,30,11,28,9.30
2012,03,30,11,29,9.30
2012,03,30,11,30,9.40
2012,03,30,11,31,9.50
2012,03,30,11,32,9.60
2012,03,30,11,33,9.50
2012,03,30,11,34,9.50
2012,03,30,11,35,9.40
2012,03,30,11,36,9.40
2012,03,30,11,37,9.30
2012,03,30,11,38,9.20
2012,03,30,11,39,9.20
2012,03,30,11,40,9.20
2012,03,30,11,41,9.20
2012,03,30,11,42,9.10
2012,03,30,11,43,9.10
2012,03,30,11,44,9.00
2012,03,30,11,45,9.00
2012,03,30,11,46,8.90
2012,03,30,11,47,8.90
2012,03,30,11,48,9.00
2012,03,30,11,49,9.00
2012,03,30,11,50,8.90
2012,03,30,11,51,8.90
2012,03,30,11,52,8.90
2012,03,30,11,53,8.90
2012,03,30,11,54,8.90
2012,03,30,11,55,8.90
2012,03,30,11,56,8.90
2012,03,30,11,57,8.90
2012,03,30,11,58,8.90
2012,03,30,11,59,9.00
2012,03,30,12,00,9.00
2012,03,30,12,01,9.10
2012,03,30,12,02,9.10
2012,03,30,12,03,9.20
2012,03,30,12,04,9.20
2012,03,30,12,05,9.20
2012,03,30,12,06,9.30
2012,03,30,12,07,9.30
2012,03,30,12,08,9.40
2012,03,30,12,09,9.40
2012,03,30,12,10,9.40
2012,03,30,12,11,9.30
2012,03,30,12,12,9.20
2012,03,30,12,13,9.10
2012,03,30,12,14,9.10
2012,03,30,12,15,9.00
2012,03,30,12,16,9.00
2012,03,30,12,17,8.90
2012,03,30,12,18,8.90
2012,03,30,12,19,8.90
2012,03,30,12,20,8.90
2012,03,30,12,21,8.90
2012,03,30,12,22,8.90
2012,03,30,12,23,8.90
2012,03,30,12,24,8.90
2012,03,30,12,25,8.80
2012,03,30,12,26,8.80
2012,03,30,12,27,8.80
2012,03,30,12,28,8.80
2012,03,30,12,29,8.90
2012,03,30,12,30,8.90
2012,03,30,12,31,8.90
2012,03,30,12,32,8.90
2012,03,30,12,33,8.90
2012,03,30,12,34,8.90
2012,03,30,12,35,8.90
2012,03,30,12,36,9.00
2012,03,30,12,37,9.00
2012,03,30,12,38,9.00
2012,03,30,12,39,9.00
2012,03,30,12,40,9.10
2012,03,30,12,41,9.10
2012,03,30,12,42,9.20
2012,03,30,12,43,9.30
2012,03,30,12,44,9.30
2012,03,30,12,45,9.40
2012,03,30,12,46,9.50
2012,03,30,12,47,9.50
2012,03,30,12,48,9.60
2012,03,30,12,49,9.50
2012,03,30,12,50,9.50
2012,03,30,12,51,9.50
2012,03,30,12,52,9.50
2012,03,30,12,53,9.40
2012,03,30,12,54,9.30
2012,03,30,12,55,9.30
2012,03,30,12,56,9.20
2012,03,30,12,57,9.10
2012,03,30,12,58,9.00
2012,03,30,12,59,8.90
2012,03,30,13,00,8.90
2012,03,30,13,01,8.80
2012,03,30,13,02,8.70
2012,03,30,13,03,8.60
2012,03,30,13,04,8.50
2012,03,30,13,05,8.50
2012,03,30,13,06,8.40
2012,03,30,13,07,8.30
2012,03,30,13,08,8.30
2012,03,30,13,09,8.20
2012,03,30,13,10,8.20
2012,03,30,13,11,8.10
2012,03,30,13,12,8.00
2012,03,30,13,13,8.00
2012,03,30,13,14,7.90
2012,03,30,13,15,7.80
2012,03,30,13,16,7.80
2012,03,30,13,17,7.80
2012,03,30,13,18,7.70
2012,03,30,13,19,7.70
2012,03,30,13,20,7.60
2012,03,30,13,21,7.60
2012,03,30,13,22,7.50
2012,03,30,13,23,7.50
2012,03,30,13,24,7.60
2012,03,30,13,25,7.60
2012,03,30,13,26,7.60
2012,03,30,13,27,7.60
2012,03,30,13,28,7.60
2012,03,30,13,29,7.60
2012,03,30,13,30,7.60
2012,03,30,13,31,7.60
2012,03,30,13,32,7.60
2012,03,30,13,33,7.60
2012,03,30,13,34,7.50
2012,03,30,13,35,7.40
2012,03,30,13,36,7.40
2012,03,30,13,37,7.30
2012,03,30,13,38,7.20
2012,03,30,13,39,7.20
2012,03,30,13,40,7.10
2012,03,30,13,41,7.10
2012,03,30,13,42,7.00
2012,03,30,13,43,7.00
2012,03,30,13,44,7.00
2012,03,30,13,45,6.90
2012,03,30,13,46,6.90
2012,03,30,13,47,6.90
2012,03,30,13,48,6.90
2012,03,30,13,49,6.90
2012,03,30,13,50,6.90
2012,03,30,13,51,6.90
2012,03,30,13,52,6.80
2012,03,30,13,53,6.70
2012,03,30,13,54,6.60
2012,03,30,13,55,6.50
2012,03,30,13,56,6.40
2012,03,30,13,57,6.30
2012,03,30,13,58,6.20
2012,03,30,13,59,6.10
2012,03,30,14,00,6.00
2012,03,30,14,01,6.00
2012,03,30,14,02,5.90
2012,03,30,14,03,5.90
2012,03,30,14,04,5.80
2012,03,30,14,05,5.80
2012,03,30,14,06,5.80
2012,03,30,14,07,5.70
2012,03,30,14,08,5.70
2012,03,30,14,09,5.70
2012,03,30,14,10,5.70
2012,03,30,14,11,5.60
2012,03,30,14,12,5.60
2012,03,30,14,13,5.60
2012,03,30,14,14,5.60
2012,03,30,14,15,5.60
2012,03,30,14,16,5.60
2012,03,30,14,17,5.50
2012,03,30,14,18,5.50
2012,03,30,14,19,5.40
2012,03,30,14,20,5.40
2012,03,30,14,21,5.40
2012,03,30,14,22,5.30
2012,03,30,14,23,5.30
2012,03,30,14,24,5.30
2012,03,30,14,25,5.30
2012,03,30,14,26,5.30
2012,03,30,14,27,5.30
2012,03,30,14,28,5.30
2012,03,30,14,29,5.30
2012,03,30,14,30,5.30
2012,03,30,14,31,5.30
2012,03,30,14,32,5.30
2012,03,30,14,33,5.30
2012,03,30,14,34,5.30
2012,03,30,14,35,5.30
2012,03,30,14,36,5.20
2012,03,30,14,37,5.20
2012,03,30,14,38,5.20
2012,03,30,14,39,5.20
2012,03,30,14,40,5.20
2012,03,30,14,41,5.20
2012,03,30,14,42,5.20
2012,03,30,14,43,5.20
2012,03,30,14,44,5.20
2012,03,30,14,45,5.20
2012,03,30,14,46,5.20
2012,03,30,14,47,5.20
2012,03,30,14,48,5.20
2012,03,30,14,49,5.20
2012,03,30,14,50,5.20
2012,03,30,14,51,5.20
2012,03,30,14,52,5.20
2012,03,30,14,53,5.20
2012,03,30,14,54,5.20
2012,03,30,14,55,5.20
2012,03,30,14,56,5.10
2012,03,30,14,57,5.10
2012,03,30,14,58,5.10
2012,03,30,14,59,5.10
2012,03,30,15,00,5.10
2012,03,30,15,01,5.10
2012,03,30,15,02,5.10
2012,03,30,15,03,5.10
2012,03,30,15,04,5.10
2012,03,30,15,05,5.10
2012,03,30,15,06,5.10
2012,03,30,15,07,5.10
2012,03,30,15,08,5.10
2012,03,30,15,09,5.10
2012,03,30,15,10,5.10
2012,03,30,15,11,5.10
2012,03,30,15,12,5.10
2012,03,30,15,13,5.10
2012,03,30,15,14,5.10
2012,03,30,15,15,5.10
2012,03,30,15,16,5.10
2012,03,30,15,17,5.10
2012,03,30,15,18,5.10
2012,03,30,15,19,5.10
2012,03,30,15,20,5.10
2012,03,30,15,21,5.10
2012,03,30,15,22,5.10
2012,03,30,15,23,5.10
2012,03,30,15,24,5.10
2012,03,30,15,25,5.10
2012,03,30,15,26,5.10
2012,03,30,15,27,5.10
2012,03,30,15,28,5.10
2012,03,30,15,29,5.20
2012,03,30,15,30,5.20
2012,03,30,15,31,5.20
2012,03,30,15,32,5.20
2012,03,30,15,33,5.20
2012,03,30,15,34,5.20
2012,03,30,15,35,5.20
2012,03,30,15,36,5.20
2012,03,30,15,37,5.30
2012,03,30,15,38,5.30
2012,03,30,15,39,5.30
2012,03,30,15,40,5.30
2012,03,30,15,41,5.30
2012,03,30,15,42,5.30
2012,03,30,15,43,5.40
2012,03,30,15,44,5.40
2012,03,30,15,45,5.40
2012,03,30,15,46,5.40
2012,03,30,15,47,5.40
2012,03,30,15,48,5.40
2012,03,30,15,49,5.40
2012,03,30,15,50,5.40
2012,03,30,15,51,5.50
2012,03,30,15,52,5.40
2012,03,30,15,53,5.40
2012,03,30,15,54,5.40
2012,03,30,15,55,5.40
2012,03,30,15,56,5.40
2012,03,30,15,57,5.40
2012,03,30,15,58,5.50
2012,03,30,15,59,5.50
2012,03,30,16,00,5.50
2012,03,30,16,01,5.50
2012,03,30,16,02,5.40
2012,03,30,16,03,5.40
2012,03,30,16,04,5.40
2012,03,30,16,05,5.40
2012,03,30,16,06,5.40
2012,03,30,16,07,5.40
2012,03,30,16,08,5.50
2012,03,30,16,09,5.50
2012,03,30,16,10,5.50
2012,03,30,16,11,5.50
2012,03,30,16,12,5.50
2012,03,30,16,13,5.50
2012,03,30,16,14,5.60
2012,03,30,16,15,5.60
2012,03,30,16,16,5.60
2012,03,30,16,17,5.60
2012,03,30,16,18,5.60
2012,03,30,16,19,5.60
2012,03,30,16,20,5.60
2012,03,30,16,21,5.60
2012,03,30,16,22,5.60
2012,03,30,16,23,5.60
2012,03,30,16,24,5.70
2012,03,30,16,25,5.70
2012,03,30,16,26,5.80
2012,03,30,16,27,5.80
2012,03,30,16,28,5.80
2012,03,30,16,29,5.80
2012,03,30,16,30,5.80
2012,03,30,16,31,5.80
2012,03,30,16,32,5.80
2012,03,30,16,33,5.80
2012,03,30,16,34,5.90
2012,03,30,16,35,6.00
2012,03,30,16,36,6.00
2012,03,30,16,37,6.00
2012,03,30,16,38,6.00
2012,03,30,16,39,6.10
2012,03,30,16,40,6.10
2012,03,30,16,41,6.10
2012,03,30,16,42,6.10
2012,03,30,16,43,6.20
2012,03,30,16,44,6.30
2012,03,30,16,45,6.30
2012,03,30,16,46,6.40
2012,03,30,16,47,6.40
2012,03,30,16,48,6.40
2012,03,30,16,49,6.40
2012,03,30,16,50,6.30
2012,03,30,16,51,6.20
2012,03,30,16,52,6.10
2012,03,30,16,53,6.00
2012,03,30,16,54,5.90
2012,03,30,16,55,5.80
2012,03,30,16,56,5.70
2012,03,30,16,57,5.60
2012,03,30,16,58,5.50
2012,03,30,16,59,5.40
2012,03,30,17,00,5.30
2012,03,30,17,01,5.20
2012,03,30,17,02,5.20
2012,03,30,17,03,5.10
2012,03,30,17,04,5.10
2012,03,30,17,05,5.10
2012,03,30,17,06,5.00
2012,03,30,17,07,5.00
2012,03,30,17,08,5.00
2012,03,30,17,09,4.90
2012,03,30,17,10,4.90
2012,03,30,17,11,4.90
2012,03,30,17,12,4.90
2012,03,30,17,13,4.90
2012,03,30,17,14,4.80
2012,03,30,17,15,4.80
2012,03,30,17,16,4.80
2012,03,30,17,17,4.80
2012,03,30,17,18,4.80
2012,03,30,17,19,4.80
2012,03,30,17,20,4.80
2012,03,30,17,21,4.80
2012,03,30,17,22,4.80
2012,03,30,17,23,4.80
2012,03,30,17,24,4.80
2012,03,30,17,25,4.80
2012,03,30,17,26,4.70
2012,03,30,17,27,4.70
2012,03,30,17,28,4.70
2012,03,30,17,29,4.70
2012,03,30,17,30,4.70
2012,03,30,17,31,4.70
2012,03,30,17,32,4.80
2012,03,30,17,33,4.80
2012,03,30,17,34,4.80
2012,03,30,17,35,4.80
2012,03,30,17,36,4.90
2012,03,30,17,37,4.90
2012,03,30,17,38,5.00
2012,03,30,17,39,5.00
2012,03,30,17,40,5.00
2012,03,30,17,41,5.10
2012,03,30,17,42,5.10
2012,03,30,17,43,5.10
2012,03,30,17,44,5.10
2012,03,30,17,45,5.10
2012,03,30,17,46,5.10
2012,03,30,17,47,5.10
2012,03,30,17,48,5.10
2012,03,30,17,49,5.10
2012,03,30,17,50,5.10
2012,03,30,17,51,5.10
2012,03,30,17,52,5.10
2012,03,30,17,53,5.10
2012,03,30,17,54,5.10
2012,03,30,17,55,5.10
2012,03,30,17,56,5.10
2012,03,30,17,57,5.10
2012,03,30,17,58,5.10
2012,03,30,17,59,5.10
2012,03,30,18,00,5.10
2012,03,30,18,01,5.10
2012,03,30,18,02,5.10
2012,03,30,18,03,5.10
2012,03,30,18,04,5.10
2012,03,30,18,05,5.10
2012,03,30,18,06,5.10
2012,03,30,18,07,5.10
2012,03,30,18,08,5.10
2012,03,30,18,09,5.10
2012,03,30,18,10,5.10
2012,03,30,18,11,5.10
2012,03,30,18,12,5.10
2012,03,30,18,13,5.10
2012,03,30,18,14,5.10
2012,03,30,18,15,5.10
2012,03,30,18,16,5.10
2012,03,30,18,17,5.10
2012,03,30,18,18,5.10
2012,03,30,18,19,5.10
2012,03,30,18,20,5.10
2012,03,30,18,21,5.10
2012,03,30,18,22,5.10
2012,03,30,18,23,5.10
2012,03,30,18,24,5.10
2012,03,30,18,25,5.10
2012,03,30,18,26,5.10
2012,03,30,18,27,5.10
2012,03,30,18,28,5.10
2012,03,30,18,29,5.10
2012,03,30,18,30,5.10
2012,03,30,18,31,5.10
2012,03,30,18,32,5.10
2012,03,30,18,33,5.10
2012,03,30,18,34,5.10
2012,03,30,18,35,5.10
2012,03,30,18,36,5.10
2012,03,30,18,37,5.10
2012,03,30,18,38,5.10
2012,03,30,18,39,5.10
2012,03,30,18,40,5.10
2012,03,30,18,41,5.10
2012,03,30,18,42,5.10
2012,03,30,18,43,5.10
2012,03,30,18,44,5.10
2012,03,30,18,45,5.10
2012,03,30,18,46,5.10
2012,03,30,18,47,5.10
2012,03,30,18,48,5.10
2012,03,30,18,49,5.10
2012,03,30,18,50,5.10
2012,03,30,18,51,5.10
2012,03,30,18,52,5.10
2012,03,30,18,53,5.00
2012,03,30,18,54,5.00
2012,03,30,18,55,4.90
2012,03,30,18,56,4.90
2012,03,30,18,57,4.90
2012,03,30,18,58,4.90
2012,03,30,18,59,4.80
2012,03,30,19,00,4.80
2012,03,30,19,01,4.80
2012,03,30,19,02,4.80
2012,03,30,19,03,4.80
2012,03,30,19,04,4.80
2012,03,30,19,05,4.80
2012,03,30,19,06,4.80
2012,03,30,19,07,4.80
2012,03,30,19,08,4.80
2012,03,30,19,09,4.80
2012,03,30,19,10,4.80
2012,03,30,19,11,4.80
2012,03,30,19,12,4.80
2012,03,30,19,13,4.80
2012,03,30,19,14,4.80
2012,03,30,19,15,4.80
2012,03,30,19,16,4.70
2012,03,30,19,17,4.70
2012,03,30,19,18,4.70
2012,03,30,19,19,4.70
2012,03,30,19,20,4.70
2012,03,30,19,21,4.70
2012,03,30,19,22,4.70
2012,03,30,19,23,4.70
2012,03,30,19,24,4.70